Location: Bamobli
(6.6379°N, 10.9396°W)
Time: 10:30:44
(UTC+00:00)

ISS - Visible Passes

Search period start: 04 March 2021 00:00
Search period end: 14 March 2021 00:00
Orbit: 417 x 422 km, 51.6° (Epoch: 04 March)

Date Brightness Start Highest point End Pass type
(mag) Time Alt. Az. Time Alt. Az. Time Alt. Az.
11 Mar -1.2 20:33:16 10° SSW 20:34:03 16° SSW 20:34:03 16° SSW visible
12 Mar -2.8 19:46:11 10° S 19:49:10 29° SE 19:49:42 27° ESE visible
13 Mar -1.3 20:35:47 10° W 20:38:18 19° NW 20:38:32 19° NW visible
